Starlink 1392

operational
NORAD ID: 45677 Int'l Des: 2020-035 Owner: SPXS Country: US Constellation: starlink
LEOCIRCULARSTARLINK_TYPE

关于 Starlink 1392

正在加载描述...

实时位置

正在加载3D地球...

即将过境

高度历史

Altitude vs Time

uPlot chart will show altitude changes over time

两行轨道根数

1 45677U 20035W 26036.73313916 .00042279 00000-0 28547-2 0 9991
2 45677 53.0572 210.0772 0003046 76.1950 283.9378 15.06210898313910
Epoch: Feb 5, 2026 • Age: 8 hours

当前状态

高度 552.1 km
速度 7.59 km/s
星下点 53.08°N, 127.72°E
发射日期 Jun 4, 2020
运行时间 5.6 years
类型 internet

技术详情

分类 Payload
质量 260.00 kg
干质量 248.00 kg
总质量 260.00 kg
长度 0.20 m
直径 2.80 m
跨度 9.00 m
形状 Box + pan
制造商 SPXS
平台类型 Starlink
阶段状态 In Orbit
所有者/国家 SPXS/US

大型星座

Loading constellations...